When you browse on this site, cookies collect data to enhance your experience and personalize the content and advertising you see.
Visit our Privacy Policy to learn more. By continuing to use the site, you agree to this use of cookies and data.
  • In Portugal
  • List of Countries
  • For 7 days
  • Water Temperature
  • Weather Map
  • Weather Widgets
  • user-avatar
    Login

    Hourly Weather Chiquimula

    Today, 28 February, Friday

    Time Temperature Precipitation Wind Pressure Humidity
    00:00 +17°C° 0 mm 2 mps 712 mmHg 93%
    01:00 +17°C° 0 mm 2 mps 711 mmHg 93%
    02:00 +17°C° 0 mm 2 mps 711 mmHg 93%
    03:00 +17°C° 0 mm 2 mps 710 mmHg 94%
    04:00 +17°C° 0 mm 2 mps 711 mmHg 94%
    05:00 +17°C° 0 mm 2 mps 711 mmHg 94%
    06:00 +17°C° 0 mm 2 mps 711 mmHg 94%
    07:00 +18°C° 0 mm 2 mps 712 mmHg 88%
    08:00 +19°C° 0 mm 3 mps 712 mmHg 82%
    09:00 +20°C° 0 mm 3 mps 713 mmHg 76%
    10:00 +22°C° 0 mm 3 mps 713 mmHg 72%
    11:00 +24°C° 0 mm 3 mps 713 mmHg 68%
    12:00 +25°C° 0 mm 4 mps 713 mmHg 63%
    13:00 +23°C° 0 mm 4 mps 712 mmHg 65%
    14:00 +23°C° 0 mm 4 mps 712 mmHg 67%
    15:00 +22°C° 0 mm 4 mps 711 mmHg 69%
    16:00 +21°C° 0 mm 3 mps 711 mmHg 75%
    17:00 +20°C° 0 mm 3 mps 711 mmHg 80%
    18:00 +18°C° 0 mm 3 mps 711 mmHg 86%
    19:00 +18°C° 0 mm 3 mps 712 mmHg 86%
    20:00 +18°C° 0 mm 3 mps 712 mmHg 87%
    21:00 +17°C° 0 mm 3 mps 713 mmHg 88%
    22:00 +17°C° 0 mm 2 mps 713 mmHg 89%
    23:00 +17°C° 0 mm 2 mps 713 mmHg 89%

    Tomorrow, 29 February, Saturday

    Time Temperature Precipitation Wind Pressure Humidity
    00:00 +17°C° 0 mm 2 mps 713 mmHg 90%
    01:00 +17°C° 0 mm 2 mps 712 mmHg 90%
    02:00 +17°C° 0 mm 2 mps 712 mmHg 90%
    03:00 +17°C° 0 mm 2 mps 712 mmHg 90%
    04:00 +17°C° 0 mm 2 mps 712 mmHg 91%
    05:00 +17°C° 0 mm 2 mps 712 mmHg 92%
    06:00 +17°C° 0 mm 2 mps 712 mmHg 92%
    07:00 +18°C° 0 mm 2 mps 712 mmHg 89%
    08:00 +19°C° 0 mm 3 mps 713 mmHg 85%
    09:00 +20°C° 0 mm 3 mps 713 mmHg 81%
    10:00 +21°C° 0 mm 3 mps 713 mmHg 75%
    11:00 +22°C° 0 mm 3 mps 713 mmHg 69%
    12:00 +23°C° 0 mm 4 mps 713 mmHg 63%
    13:00 +23°C° 0 mm 4 mps 712 mmHg 63%
    14:00 +23°C° 0 mm 4 mps 711 mmHg 63%
    15:00 +23°C° 0 mm 4 mps 711 mmHg 63%
    16:00 +22°C° 0 mm 3 mps 711 mmHg 68%
    17:00 +21°C° 0 mm 3 mps 711 mmHg 73%
    18:00 +19°C° 0 mm 3 mps 711 mmHg 78%
    19:00 +18°C° 0 mm 2 mps 711 mmHg 82%
    20:00 +17°C° 0 mm 2 mps 712 mmHg 87%
    21:00 +17°C° 0 mm 2 mps 712 mmHg 91%
    22:00 +16°C° 0 mm 2 mps 712 mmHg 92%
    23:00 +16°C° 0 mm 1 mps 711 mmHg 92%

    Day after tomorrow, 1 March, Sunday

    Time Temperature Precipitation Wind Pressure Humidity
    00:00 +16°C° 0 mm 1 mps 711 mmHg 93%
    01:00 +16°C° 0 mm 1 mps 711 mmHg 93%
    02:00 +16°C° 0 mm 1 mps 710 mmHg 94%
    03:00 +16°C° 0 mm 1 mps 710 mmHg 94%
    04:00 +16°C° 0 mm 1 mps 710 mmHg 94%
    05:00 +16°C° 0 mm 1 mps 710 mmHg 93%
    06:00 +16°C° 0 mm 1 mps 710 mmHg 93%
    07:00 +19°C° 0 mm 1 mps 711 mmHg 84%
    08:00 +20°C° 0 mm 2 mps 712 mmHg 75%
    09:00 +24°C° 0 mm 2 mps 712 mmHg 66%
    10:00 +25°C° 0 mm 2 mps 712 mmHg 61%
    11:00 +26°C° 0 mm 3 mps 711 mmHg 57%
    12:00 +28°C° 0 mm 3 mps 711 mmHg 52%
    13:00 +28°C° 0 mm 3 mps 710 mmHg 51%
    14:00 +29°C° 0 mm 3 mps 709 mmHg 50%
    15:00 +29°C° 0 mm 3 mps 708 mmHg 49%
    16:00 +27°C° 0 mm 3 mps 708 mmHg 58%
    17:00 +25°C° 0 mm 2 mps 708 mmHg 66%
    18:00 +23°C° 0 mm 2 mps 708 mmHg 75%
    19:00 +21°C° 0 mm 2 mps 708 mmHg 82%
    20:00 +20°C° 0 mm 2 mps 709 mmHg 89%
    21:00 +20°C° 0 mm 1 mps 709 mmHg 97%
    22:00 +20°C° 0 mm 1 mps 709 mmHg 96%
    23:00 +20°C° 0 mm 1 mps 709 mmHg 95%

    2 March, Monday

    Time Temperature Precipitation Wind Pressure Humidity
    00:00 +20°C° 0 mm 1 mps 709 mmHg 95%
    01:00 +20°C° 0 mm 1 mps 709 mmHg 95%
    02:00 +19°C° 0 mm 1 mps 708 mmHg 95%
    03:00 +19°C° 0 mm 1 mps 708 mmHg 96%
    04:00 +18°C° 0 mm 1 mps 708 mmHg 96%
    05:00 +18°C° 0 mm 1 mps 708 mmHg 96%
    06:00 +15°C° 0 mm 0 mps 708 mmHg 96%
    07:00 +18°C° 0 mm 0 mps 709 mmHg 84%
    08:00 +22°C° 0 mm 0 mps 709 mmHg 72%
    09:00 +25°C° 0 mm 0 mps 710 mmHg 60%
    10:00 +29°C° 0 mm 1 mps 710 mmHg 52%
    11:00 +32°C° 0 mm 1 mps 709 mmHg 44%
    12:00 +35°C° 0 mm 1 mps 709 mmHg 36%
    13:00 +35°C° 0 mm 1 mps 708 mmHg 34%
    14:00 +35°C° 0 mm 1 mps 707 mmHg 32%
    15:00 +37°C° 0 mm 2 mps 706 mmHg 30%
    16:00 +34°C° 0 mm 2 mps 706 mmHg 41%
    17:00 +30°C° 0 mm 2 mps 706 mmHg 52%
    18:00 +28°C° 0 mm 2 mps 706 mmHg 63%
    19:00 +26°C° 0 mm 2 mps 706 mmHg 73%
    20:00 +24°C° 0 mm 1 mps 707 mmHg 84%
    21:00 +22°C° 0 mm 1 mps 707 mmHg 95%
    22:00 +22°C° 0 mm 1 mps 707 mmHg 94%
    23:00 +20°C° 0 mm 0 mps 707 mmHg 94%

    3 March, Tuesday

    Time Temperature Precipitation Wind Pressure Humidity
    00:00 +20°C° 0 mm 0 mps 707 mmHg 94%
    01:00 +20°C° 0 mm 0 mps 706 mmHg 93%
    02:00 +20°C° 0 mm 0 mps 706 mmHg 93%
    03:00 +22°C° 0 mm 1 mps 706 mmHg 92%
    04:00 +21°C° 0 mm 1 mps 706 mmHg 93%
    05:00 +21°C° 0 mm 1 mps 706 mmHg 94%
    06:00 +20°C° 0 mm 1 mps 706 mmHg 94%
    07:00 +23°C° 0 mm 1 mps 707 mmHg 81%
    08:00 +26°C° 0 mm 1 mps 708 mmHg 67%
    09:00 +29°C° 0 mm 2 mps 708 mmHg 54%
    10:00 +31°C° 0 mm 2 mps 708 mmHg 48%
    11:00 +34°C° 0 mm 2 mps 708 mmHg 42%
    12:00 +36°C° 0 mm 3 mps 708 mmHg 36%
    13:00 +36°C° 0 mm 3 mps 707 mmHg 35%
    14:00 +36°C° 0 mm 3 mps 706 mmHg 34%
    15:00 +36°C° 0 mm 3 mps 705 mmHg 33%
    16:00 +35°C° 0 mm 3 mps 705 mmHg 38%
    17:00 +32°C° 0 mm 2 mps 705 mmHg 44%
    18:00 +30°C° 0 mm 1 mps 705 mmHg 49%
    19:00 +28°C° 0 mm 1 mps 706 mmHg 56%
    20:00 +26°C° 0 mm 1 mps 706 mmHg 63%
    21:00 +25°C° 0 mm 1 mps 706 mmHg 70%
    22:00 +24°C° 0 mm 2 mps 706 mmHg 74%
    23:00 +23°C° 0 mm 2 mps 706 mmHg 79%

    4 March, Wednesday

    Time Temperature Precipitation Wind Pressure Humidity
    00:00 +23°C° 0 mm 2 mps 706 mmHg 83%
    01:00 +21°C° 0 mm 2 mps 706 mmHg 86%
    02:00 +21°C° 0 mm 2 mps 706 mmHg 88%
    03:00 +20°C° 0 mm 2 mps 706 mmHg 91%
    04:00 +21°C° 0 mm 1 mps 706 mmHg 90%
    05:00 +21°C° 0 mm 1 mps 706 mmHg 89%
    06:00 +21°C° 0 mm 1 mps 707 mmHg 89%
    07:00 +24°C° 0 mm 1 mps 708 mmHg 76%
    08:00 +27°C° 0 mm 1 mps 709 mmHg 64%
    09:00 +30°C° 0 mm 1 mps 709 mmHg 52%
    10:00 +32°C° 0 mm 1 mps 709 mmHg 44%
    11:00 +35°C° 0 mm 1 mps 709 mmHg 37%
    12:00 +39°C° 0 mm 1 mps 709 mmHg 30%
    13:00 +38°C° 0 mm 2 mps 709 mmHg 29%
    14:00 +38°C° 0 mm 2 mps 708 mmHg 28%
    15:00 +38°C° 0 mm 3 mps 707 mmHg 27%
    16:00 +36°C° 0 mm 3 mps 708 mmHg 36%
    17:00 +33°C° 0 mm 3 mps 708 mmHg 45%
    18:00 +30°C° 0 mm 3 mps 708 mmHg 55%
    19:00 +28°C° 0.1 mm 3 mps 709 mmHg 65%
    20:00 +26°C° 0.1 mm 3 mps 709 mmHg 75%
    21:00 +25°C° 0.1 mm 3 mps 710 mmHg 85%
    22:00 +24°C° 0.2 mm 3 mps 710 mmHg 86%
    23:00 +22°C° 0.2 mm 3 mps 710 mmHg 87%
    Show more